Miscellaneous Local Product
Issued by NWS Hastings, NE

Home | Current Version | Previous Version | Text Only | Print | Product List | Glossary Off
Versions: 1 2 3 4 5 6 7 8 9 10 11 12 13 14 15 16 17 18 19 20 21 22 23 24 25 26 27 28 29 30 31 32 33 34 35 36 37 38 39 40 41 42 43 44 45 46 47 48 49 50

000
AXUS43 KGID 271402
MISGRI

GID CWA HOURLY WEATHER ROUNDUP
NATIONAL WEATHER SERVICE HASTINGS NE
900 AM CDT MON MAR 27 2017

NOTE: "FAIR" INDICATES FEW OR NO CLOUDS BELOW 12,000 FEET WITH NO
SIGNIFICANT WEATHER AND/OR OBSTRUCTIONS TO VISIBILITY.

...SOUTH CENTRAL NEBRASKA...

CITY           SKY/WX    TMP DP  RH WIND       PRES   REMARKS
GRAND ISLAND   CLOUDY    43  43 100 NE5       29.97S
HASTINGS       CLOUDY    44  41  89 NE8       29.98R
KEARNEY        CLOUDY    45  39  81 E5        29.96S
ORD            CLOUDY    43  39  86 CALM      29.96R
YORK           CLOUDY    43  43 100 NE5       29.98R
AURORA         CLOUDY    42  42  99 NE6       29.98R FOG
LEXINGTON      FOG       41  39  95 SE3       29.97R VSB 1/4
HOLDREGE       FOG       40  39  97 CALM      29.96R VSB<1/4
HEBRON         CLOUDY    44  43  97 N6        29.97R FOG

...NEBRASKA PANHANDLE...

CITY           SKY/WX    TMP DP  RH WIND       PRES   REMARKS
CHADRON        PTSUNNY   29  28  96 CALM      29.89S FOG
ALLIANCE       FOG       28  28 100 CALM      29.91R VSB 1/2
SCOTTSBLUFF    SUNNY     32  30  92 E5        29.91S WCI  27
SIDNEY         SUNNY     32  31  96 W3        29.93R

...WESTERN AND NORTH CENTRAL NEBRASKA...

CITY           SKY/WX    TMP DP  RH WIND       PRES   REMARKS
VALENTINE      FOG       38  36  92 S5        29.95S VSB 1/4 WCI  34
AINSWORTH      CLOUDY    39  39 100 CALM      29.95F FOG
ONEILL         PTSUNNY   41  38  91 CALM      29.97R
BROKEN BOW     CLOUDY    42  32  67 E3        29.95R
IMPERIAL       SUNNY     38  34  85 NW5       29.94S WCI  34
NORTH PLATTE   FOG       37  36  96 CALM      29.95R VSB<1/4
MCCOOK         SUNNY     36  36 100 SW3       29.96R

...EASTERN NEBRASKA...

CITY           SKY/WX    TMP DP  RH WIND       PRES   REMARKS
NORFOLK        CLOUDY    44  40  85 CALM      29.96S
SO SIOUX CITY  CLOUDY    44  41  89 N7        29.98R
TEKAMAH        CLOUDY    44  41  89 N10       29.97R
COLUMBUS       CLOUDY    43  39  87 N3        29.98R
ALBION         CLOUDY    44  41  89 CALM      29.97R
OMAHA EPPLEY   CLOUDY    45  39  79 NW5       29.96R
OFFUTT AFB     CLOUDY    45  39  81 NE5       29.95R
MILLARD        CLOUDY    46  41  82 NE3       29.96S
LINCOLN        CLOUDY    44  41  89 N9        29.98R
NEBRASKA CITY  CLOUDY    44  43  96 N10       29.95R
BEATRICE       CLOUDY    45  44  98 N6        29.96R FOG
FALLS CITY     CLOUDY    47  43  86 N9        29.92R

...NORTHERN KANSAS...

CITY           SKY/WX    TMP DP  RH WIND       PRES   REMARKS
GOODLAND       SUNNY     38  36  92 W7        29.95R WCI  33
HILL CITY      SUNNY     37  36  96 W6        29.98R WCI  32
NORTON         FOG       34  32  93 CALM      29.96R VSB 0
PHILLIPSBURG   CLOUDY    45  45 100 CALM      29.98R FOG
HAYS             N/A     46  44  93 NW6       29.97R
RUSSELL        CLOUDY    46  45  96 N8        29.95R FOG
CONCORDIA      CLOUDY    45  45 100 N7        29.96R FOG
SALINA         CLOUDY    48  45  89 N9        29.96R FOG
TOPEKA         CLOUDY    47  47 100 NW8       29.91R



USA.gov is the U.S. government's official web portal to all federal, state and local government web resources and services.